Flag for Bosnia-Herzegovina Weather past 2 weeks in Banja Luka, Bosnia-Herzegovina

34 °F

Light rain. Low clouds.

Feels Like: 34 °F
Forecast: 25 / 46 °F
Wind: No wind

Location: Banja Luka

Current Time: Nov 28, 2015 at 9:43:57 AM

Latest Report: Nov 28, 2015 at 9:00 AM

Visibility: 1 mi

Pressure: 29.93 "Hg

Humidity: 95%

Dew point: 33 °F

Location of Banja LukaLocation

Historic Weather in Banja Luka — Graph


Banja Luka temperature yesterday

Maximum temperature yesterday: 36 °F (at 3:00 PM)
Minimum temperature yesterday: 34 °F (at 7:00 PM)
Average temperature yesterday: 35 °F

Past Weeks' High & Low Weather Summary

High77 °F (Nov 17, 1:00 PM)100% (Nov 15, 4:00 AM)30.40 "Hg (Nov 15, 4:00 AM)
Low33 °F (Nov 26, 1:00 AM)25% (Nov 17, 12:00 PM)29.29 "Hg (Nov 21, 9:00 AM)
Average45 °F80%30.02 "Hg
* Reported Nov 13 8:00 AM — Nov 28 7:00 AM, Banja Luka, Weather by CustomWeather, © 2015

Note: Actual official high and low records may vary slightly from our data, if they occured in-between our weather recording intervals... More about our weather records


Banja Luka weather history for previous 24 hours

Time TempWeatherWind HumidityBarometerVisibility
7:00 AM
Sat, Nov 28
33 °FLight snow. Low clouds.No wind96%29.88 "Hg1 mi
6:00 AM34 °FLight snow. Overcast.No wind95%29.89 "Hg2 mi
4:00 AM35 °FLight rain. Overcast.No wind93%29.90 "Hg2 mi
1:00 AM35 °FLight rain. Low clouds.No wind96%29.93 "Hg1 mi
10:00 PM
Fri, Nov 27
35 °FLight rain. Low clouds.1 mph95%29.96 "Hg1 mi
9:00 PM35 °FLight rain. Low clouds.No wind95%29.96 "Hg1 mi
8:00 PM35 °FLight rain. Low clouds.No wind95%29.97 "Hg1 mi
7:00 PM34 °FLight rain. Low clouds.No wind95%29.97 "Hg1 mi
6:00 PM35 °FLight rain. Low clouds.No wind93%29.96 "Hg1 mi
5:00 PM35 °FLight rain. Low clouds.1 mph91%29.97 "Hg1 mi
4:00 PM36 °FLight rain. Low clouds.1 mph87%29.97 "Hg1 mi
3:00 PM36 °FFog.No wind82%29.98 "Hg2 mi
2:00 PM36 °FFog.1 mph85%29.99 "Hg1 mi
1:00 PM36 °FFog.No wind81%30.01 "Hg1 mi
12:00 PM36 °FFog.1 mph85%30.02 "Hg2 mi
11:00 AM36 °FOvercast.No wind89%30.07 "Hg2 mi
10:00 AM36 °FLight rain. Low clouds.No wind86%30.07 "Hg1 mi
9:00 AM35 °FLight rain. Low clouds.No wind94%30.04 "Hg1 mi
Weather by CustomWeather, © 2015

See weather overviewHow to use our weather pages